Daichi

operational
NORAD ID: 28931 Int'l Des: 2006-002 Owner: JAXA Country: J
LEOCIRCULARRETROGRADESSO

About Daichi

Description loading...

Live Position

Loading 3D Globe...

Upcoming Passes

Altitude History

Altitude vs Time

uPlot chart will show altitude changes over time

Two-Line Element Set

1 28931U 06002A 26102.33589738 .00000843 00000-0 14917-3 0 9998
2 28931 98.1269 58.1373 0001467 114.4165 245.7194 14.69915237 78427
Epoch: Apr 12, 2026 • Age: 12 hours

Current Status

Altitude 666.4 km
Velocity 7.53 km/s
Sub-Earth Point 41.37°N, 102.92°E
Launch Date Jan 24, 2006
Age 20.2 years
Type other

Technical Details

Classification Payload
Mass 4000.00 kg
Dry Mass 3800.00 kg
Total Mass 4000.00 kg
Length 6.50 m
Diameter 4.50 m
Span 28.00 m
Shape Box + 2 Pan
Manufacturer TSUK/NECTF
Bus Type ALOS
Phase Status In Orbit
Owner/State JAXA/J

Large Constellations

Loading constellations...